Weather reports worldwide

Advertisment
Georgetown, de, United States of America (2072186): temperature & dewpoint: 07.12.2019 00:00:00 - 13.12.2019 00:00:00 (EST)Georgetown, de, United States of America (2072186): wind speed & gusts: 07.12.2019 00:00:00 - 13.12.2019 00:00:00 (EST)Georgetown, de, United States of America (2072186): wind direction: 07.12.2019 00:00:00 - 13.12.2019 00:00:00 (EST)Georgetown, de, United States of America (2072186): reduced air pressure: 07.12.2019 00:00:00 - 13.12.2019 00:00:00 (EST)Georgetown, de, United States of America (2072186): visibility: 07.12.2019 00:00:00 - 13.12.2019 00:00:00 (EST)Georgetown, de, United States of America (2072186): precipitation: 07.12.2019 00:00:00 - 13.12.2019 00:00:00 (EST)
Date & Time tt [°C] td [°C] ff [km/h] ff [kn] fx [km/h] fx [kn] dd ppp [hPa] vv [km] rr [mm]
13.12.2019 00:00:00 1,7 -1,1 5 3 - - NE 1034,1 16 -
12.12.2019 23:00:00 0,6 -1,7 9 5 - - ENE 1035,1 16 -
12.12.2019 22:00:00 1,1 -2,2 11 6 - - ENE 1036,3 16 -
12.12.2019 21:00:00 -1,1 -4,4 0 0 - - N 1037,4 16 -
12.12.2019 20:00:00 -0,6 -3,9 5 3 - - N 1038,2 16 -
12.12.2019 19:00:00 0,6 -3,9 8 4 - - N 1038,8 16 -
12.12.2019 18:00:00 0,6 -3,3 0 0 - - N 1038,5 16 -
12.12.2019 17:00:00 1,1 -3,3 8 4 - - ENE 1038,8 16 -
12.12.2019 16:00:00 3,9 -2,8 9 5 - - E 1039,0 16 -
12.12.2019 15:00:00 4,4 -2,8 11 6 - - ESE 1039,0 16 -
12.12.2019 14:00:00 3,9 -4,4 0 0 - - N 1039,3 16 -
12.12.2019 13:00:00 3,9 -5,0 13 7 - - E 1039,9 16 -
12.12.2019 12:00:00 2,8 -6,7 5 3 - - - 1040,6 16 -
12.12.2019 11:00:00 1,7 -7,8 15 8 - - E 1041,2 16 -
12.12.2019 10:00:00 1,7 -6,7 18 10 - - ENE 1041,4 16 -
12.12.2019 09:00:00 0,0 -7,8 8 4 - - NNE 1040,9 16 -
12.12.2019 08:00:00 -1,7 -8,9 5 3 - - N 1040,1 16 -
12.12.2019 07:00:00 -2,2 -8,9 5 3 - - N 1039,4 16 -
12.12.2019 06:00:00 -1,7 -8,3 9 5 - - NNW 1038,7 16 -
12.12.2019 05:00:00 -1,7 -7,8 8 4 - - N 1038,0 16 -
12.12.2019 04:00:00 -1,1 -7,8 5 3 - - - 1037,0 16 -
12.12.2019 03:00:00 -0,6 -7,8 5 3 - - N 1036,6 16 -
12.12.2019 02:00:00 0,0 -8,3 0 0 - - N 1036,2 16 -
12.12.2019 01:00:00 0,6 -8,3 9 5 - - NW 1035,2 16 -
12.12.2019 00:00:00 1,1 -8,3 9 5 - - NNW 1034,9 16 -
11.12.2019 23:00:00 0,6 -7,2 0 0 - - N 1034,1 16 -
11.12.2019 22:00:00 0,0 -5,6 0 0 - - N 1033,2 16 -
11.12.2019 21:00:00 -1,1 -4,4 5 3 - - SSW 1032,2 16 -
11.12.2019 20:00:00 0,0 -5,6 0 0 - - N 1031,3 16 -
11.12.2019 19:00:00 0,0 -5,0 8 4 - - SSW 1030,7 16 -
11.12.2019 18:00:00 2,2 -5,6 5 3 - - NW 1029,9 16 -
11.12.2019 17:00:00 2,8 -6,1 11 6 - - WNW 1029,7 16 -
11.12.2019 16:00:00 4,4 -6,7 13 7 - - WNW 1028,4 16 -
11.12.2019 15:00:00 4,4 -5,6 9 5 - - WNW 1027,5 16 -
11.12.2019 14:00:00 4,4 - 11 6 - - - 1027,2 16 -
11.12.2019 13:00:00 4,4 - 11 6 - - - 1026,8 16 -
11.12.2019 12:00:00 3,3 - 11 6 - - NW 1026,9 16 -
11.12.2019 11:00:00 2,8 0,0 8 4 - - - 1027,9 16 -
11.12.2019 10:00:00 1,7 0,6 8 4 - - - 1027,8 11 -
11.12.2019 09:00:00 1,1 0,6 9 5 - - WNW 1027,4 4,8 0,3
11.12.2019 08:00:00 1,1 0,6 0 0 - - N 1026,3 6 0,0
11.12.2019 07:00:00 0,6 0,6 8 4 - - NW 1026,2 8 0,5
11.12.2019 06:00:00 0,6 0,6 5 3 - - - 1024,5 1,2 0,3
11.12.2019 05:00:00 1,7 1,1 5 3 - - - 1023,2 11 0,5
11.12.2019 04:00:00 1,7 0,6 9 5 - - - 1023,2 11 0,5
11.12.2019 03:00:00 2,8 0,0 18 10 - - NNW 1023,5 16 0,3
11.12.2019 02:00:00 4,4 2,8 13 7 - - NW 1022,0 16 0,3
11.12.2019 01:00:00 5,6 4,4 13 7 - - N 1020,6 15 0,3
11.12.2019 00:00:00 7,2 6,1 9 5 - - - 1020,7 8 0,5
10.12.2019 23:00:00 8,3 7,2 9 5 - - NW 1019,5 8 1,3
10.12.2019 22:00:00 8,9 7,8 11 6 - - NNW 1018,9 11 0,3
10.12.2019 21:00:00 10,0 10,0 21 11 - - NNW 1017,9 13 0,0
10.12.2019 20:00:00 12,2 11,7 11 6 - - WNW 1017,0 6 0,8
10.12.2019 19:00:00 13,3 11,1 22 12 - - NNW 1015,8 15 1,0
10.12.2019 18:00:00 15,6 15,0 16 9 - - NW 1014,2 8 0,8
10.12.2019 17:00:00 16,1 15,6 5 3 - - WSW 1013,0 6 0,5
10.12.2019 16:00:00 16,1 15,6 8 4 - - WSW 1012,3 8 0,0
10.12.2019 15:00:00 17,2 15,6 15 8 - - WSW 1011,4 11 0,0
10.12.2019 14:00:00 18,3 16,1 18 10 - - WSW 1010,8 8 0,0
10.12.2019 13:00:00 19,4 15,6 26 14 - - WSW 1010,4 16 0,0
10.12.2019 12:00:00 18,9 16,1 31 17 - - SW 1011,2 16 0,0
10.12.2019 11:00:00 18,3 15,6 26 14 48 26 SW 1011,3 16 0,0
10.12.2019 10:00:00 18,9 15,6 35 19 - - SW 1011,7 16 -
10.12.2019 09:00:00 17,8 15,6 26 14 - - SSW 1011,9 16 -
10.12.2019 08:00:00 17,2 15,0 29 16 - - SW 1011,4 16 -
10.12.2019 07:00:00 17,2 14,4 31 17 - - SW 1011,1 16 -
10.12.2019 06:00:00 17,2 14,4 31 17 - - SW 1010,5 16 -
10.12.2019 05:00:00 17,2 14,4 28 15 54 29 SW 1010,7 16 0,0
10.12.2019 04:00:00 17,2 14,4 31 17 50 27 SW 1010,2 16 0,0
10.12.2019 03:00:00 17,2 14,4 35 19 54 29 SW 1010,1 16 0,0
10.12.2019 02:00:00 17,2 14,4 34 18 54 29 SW 1010,1 16 0,0
10.12.2019 01:00:00 - - - - - - - - - -
10.12.2019 00:00:00 16,1 14,4 28 15 - - SW 1010,8 16 0,0
09.12.2019 23:00:00 16,1 14,4 31 17 52 28 SW 1011,2 16 0,0
09.12.2019 22:00:00 16,1 14,4 26 14 48 26 SW 1011,6 16 0,3
09.12.2019 21:00:00 16,1 14,4 29 16 - - SW 1011,1 16 0,0
09.12.2019 20:00:00 16,1 14,4 31 17 - - SSW 1011,0 16 -
09.12.2019 19:00:00 15,6 14,4 22 12 - - SSW 1011,1 16 0,0
09.12.2019 18:00:00 15,6 15,0 24 13 - - SSW 1011,7 16 0,3
09.12.2019 17:00:00 15,6 15,0 18 10 - - SSW 1012,2 16 0,3
09.12.2019 16:00:00 13,3 13,3 9 5 - - S 1012,8 2,0 0,3
09.12.2019 15:00:00 12,2 12,2 8 4 - - SSW 1013,9 1,2 0,0
09.12.2019 14:00:00 12,8 12,2 11 6 - - SSW 1014,9 10 0,3
09.12.2019 13:00:00 13,3 12,2 9 5 - - W 1016,3 16 0,0
09.12.2019 12:00:00 13,3 11,7 15 8 - - SW 1017,2 16 -
09.12.2019 11:00:00 12,8 11,7 18 10 - - SSW 1018,7 16 -
09.12.2019 10:00:00 11,7 11,1 13 7 - - SSW 1019,0 16 -
09.12.2019 09:00:00 11,7 11,1 16 9 - - WSW 1019,8 16 -
09.12.2019 08:00:00 10,0 10,0 8 4 - - SW 1019,0 15 0,3
09.12.2019 07:00:00 10,0 10,0 11 6 - - S 1018,8 16 0,0
09.12.2019 06:00:00 7,8 7,8 0 0 - - N 1020,1 6 1,5
09.12.2019 05:00:00 7,8 7,2 11 6 - - WNW 1021,0 11 1,3
09.12.2019 04:00:00 7,2 7,2 8 4 - - NE 1021,6 8 3,6
09.12.2019 03:00:00 7,2 7,2 5 3 - - N 1023,1 6 1,3
09.12.2019 02:00:00 6,7 6,7 5 3 - - NE 1023,9 8 0,0
09.12.2019 01:00:00 6,1 5,6 5 3 - - ENE 1025,1 4,8 0,0
09.12.2019 00:00:00 6,1 3,9 5 3 - - WNW 1026,5 16 -
08.12.2019 23:00:00 6,1 3,3 0 0 - - N 1027,1 16 -
08.12.2019 22:00:00 5,6 2,8 0 0 - - N 1028,0 16 -
08.12.2019 21:00:00 5,0 1,7 0 0 - - N 1027,8 16 -
08.12.2019 20:00:00 3,3 1,1 0 0 - - N 1028,0 16 -
08.12.2019 19:00:00 3,9 1,1 0 0 - - N 1029,2 16 -
08.12.2019 18:00:00 3,9 1,1 8 4 - - ENE 1029,1 16 -
08.12.2019 17:00:00 6,7 1,1 8 4 - - ESE 1029,4 16 -
08.12.2019 16:00:00 8,9 1,1 15 8 - - SSE 1029,8 16 -
08.12.2019 15:00:00 9,4 0,6 16 9 - - SE 1030,3 16 -
08.12.2019 14:00:00 10,0 0,0 11 6 - - SSE 1030,7 16 -
08.12.2019 13:00:00 9,4 0,0 16 9 - - S 1031,5 16 -
08.12.2019 12:00:00 8,3 -0,6 15 8 - - SE 1032,4 16 -
08.12.2019 11:00:00 7,2 -1,1 22 12 - - SE 1033,4 16 -
08.12.2019 10:00:00 5,6 -1,1 11 6 - - E 1033,8 16 -
08.12.2019 09:00:00 1,7 -2,2 0 0 - - N 1033,9 16 -
08.12.2019 08:00:00 -2,8 -5,0 0 0 - - N 1033,7 16 -
08.12.2019 07:00:00 -4,4 -6,1 0 0 - - N 1033,5 16 -
08.12.2019 06:00:00 -4,4 -6,1 0 0 - - N 1033,3 16 -
08.12.2019 05:00:00 -3,9 -6,1 0 0 - - N 1033,1 16 -
08.12.2019 04:00:00 -4,4 -6,1 0 0 - - N 1033,0 16 -
08.12.2019 03:00:00 -3,3 -6,1 0 0 - - N 1033,2 16 -
08.12.2019 02:00:00 -2,8 -5,6 0 0 - - N 1033,0 16 -
08.12.2019 01:00:00 -2,8 -5,6 0 0 - - N 1032,8 16 -
08.12.2019 00:00:00 -2,8 -6,7 0 0 - - N 1032,6 16 -
07.12.2019 23:00:00 -1,7 -6,7 0 0 - - N 1032,4 16 -
07.12.2019 22:00:00 -1,1 -6,1 0 0 - - N 1032,3 16 -
07.12.2019 21:00:00 -1,1 -6,1 0 0 - - N 1032,0 16 -
07.12.2019 20:00:00 0,6 -6,1 5 3 - - N 1031,7 16 -
07.12.2019 19:00:00 1,7 -6,1 0 0 - - N 1031,2 16 -
07.12.2019 18:00:00 2,8 -5,6 5 3 - - N 1030,8 16 -
07.12.2019 17:00:00 4,4 -6,1 5 3 - - NNW 1030,1 16 -
07.12.2019 16:00:00 6,1 -5,0 8 4 - - N 1029,6 16 -
07.12.2019 15:00:00 6,7 -6,7 8 4 - - - 1028,9 16 -
07.12.2019 14:00:00 6,7 -6,1 9 5 - - NNW 1028,9 16 -
07.12.2019 13:00:00 6,7 -5,0 8 4 - - - 1028,6 16 -
07.12.2019 12:00:00 5,6 -5,0 13 7 - - NE 1029,0 16 -
07.12.2019 11:00:00 5,6 -5,6 11 6 - - NE 1029,3 16 -
07.12.2019 10:00:00 5,0 -6,7 18 10 - - NNE 1029,4 16 -
07.12.2019 09:00:00 3,9 -5,0 13 7 - - N 1029,0 16 -
07.12.2019 08:00:00 2,2 -4,4 0 0 - - N 1028,5 16 -
07.12.2019 07:00:00 1,7 -3,9 11 6 - - N 1028,0 16 -
07.12.2019 06:00:00 2,8 -2,8 8 4 - - N 1026,7 16 -
07.12.2019 05:00:00 3,3 -2,8 9 5 - - N 1025,7 16 -
07.12.2019 04:00:00 4,4 -3,3 9 5 - - N 1024,5 16 -
07.12.2019 03:00:00 6,1 -1,7 13 7 - - NNE 1023,8 16 -
07.12.2019 02:00:00 7,2 0,0 22 12 - - NNE 1022,6 16 -
07.12.2019 01:00:00 8,3 2,2 8 4 - - N 1021,7 16 -
07.12.2019 00:00:00 10,0 2,8 13 7 - - N 1020,9 16 -

tt = temperature
td = dewpoint
ff = wind speed
fx = gusts
dd = wind direction
ppp = reduced air pressure
vv = visibility
rr = precipitation

Next stations